Earl Gonsoulin — WDC3306 — position and weather

sailwx.info

Track history (hours):
 
Tides and Currents Weather Stations Pressure Air Temp Water Temp Dewpoint Dewpoint Depression Visibility Wind Speed Wind Dir Waves Ship Positions

Earl Gonsoulin

Owner: LeBeouf Bros. Towing, L.L.C., Houma, LA. More information available from US FCC via Universal Licensing System and Coast Guard Vessel Documentation Center.

Last reported at 2014-Nov-25 15:32 UTC. Time now 2014-Nov-28 21:45 UTC.
Position N 29°11' W 095°05'.

Length 22 m.

Type: Towing. MMSI: 367005550.

Date/timePositionNaut miles runAvg speedWind from/ knotsBaromVisibWave heightAir tempDewpointWater temp
2014-Nov-25 15:32N 29°11' W 095°05'6 5.6
2014-Nov-25 14:29N 29°15' W 094°60'5 5.4
2014-Nov-25 13:34N 29°17' W 094°55'11 5.1
2014-Nov-25 11:25N 29°28' W 094°51'6 6.5
2014-Nov-25 10:33N 29°33' W 094°54'7 6.7
2014-Nov-25 09:33N 29°38' W 094°58'7 6.5
2014-Nov-25 08:33N 29°44' W 095°02'6 5.7
2014-Nov-25 07:33N 29°44' W 095°09'2 1.8
2014-Nov-25 06:08N 29°45' W 095°12'0 0.0
2014-Nov-25 05:33N 29°45' W 095°12'0 0.0
2014-Nov-24 16:33N 29°45' W 095°12'2 1.9
2014-Nov-24 15:33N 29°44' W 095°09'4 3.3
2014-Nov-24 14:25N 29°46' W 095°05'0 0.0
2014-Nov-24 07:22N 29°46' W 095°05'4 4.3
2014-Nov-24 06:29N 29°44' W 095°09'4 3.1
2014-Nov-24 05:15N 29°46' W 095°05'1 0.7
2014-Nov-24 04:24N 29°46' W 095°06'0 0.0
2014-Nov-24 01:21N 29°45' W 095°06'1 0.9
2014-Nov-24 00:24N 29°46' W 095°05'4 5.2
2014-Nov-23 23:33N 29°43' W 095°01'4 4.3
2014-Nov-23 22:33N 29°40' W 094°58'6 5.9
2014-Nov-23 21:34N 29°34' W 094°55'7 6.5
2014-Nov-23 20:32N 29°29' W 094°51'  
Track history (hours):
 
Tides and Currents Weather Stations Pressure Air Temp Water Temp Dewpoint Dewpoint Depression Visibility Wind Speed Wind Dir Waves Ship Positions

Earl Gonsoulin

Owner: LeBeouf Bros. Towing, L.L.C., Houma, LA. More information available from US FCC via Universal Licensing System and Coast Guard Vessel Documentation Center.

Last reported at 2014-Nov-25 15:32 UTC. Time now 2014-Nov-28 21:45 UTC.
Position N 29°11' W 095°05'.

Length 22 m.

Type: Towing. MMSI: 367005550.

Date/timePositionNaut miles runAvg speedWind from/ knotsBaromVisibWave heightAir tempDewpointWater temp
2014-Nov-25 15:32N 29°11' W 095°05'6 5.6
2014-Nov-25 14:29N 29°15' W 094°60'5 5.4
2014-Nov-25 13:34N 29°17' W 094°55'11 5.1
2014-Nov-25 11:25N 29°28' W 094°51'6 6.5
2014-Nov-25 10:33N 29°33' W 094°54'7 6.7
2014-Nov-25 09:33N 29°38' W 094°58'7 6.5
2014-Nov-25 08:33N 29°44' W 095°02'6 5.7
2014-Nov-25 07:33N 29°44' W 095°09'2 1.8
2014-Nov-25 06:08N 29°45' W 095°12'0 0.0
2014-Nov-25 05:33N 29°45' W 095°12'0 0.0
2014-Nov-24 16:33N 29°45' W 095°12'2 1.9
2014-Nov-24 15:33N 29°44' W 095°09'4 3.3
2014-Nov-24 14:25N 29°46' W 095°05'0 0.0
2014-Nov-24 07:22N 29°46' W 095°05'4 4.3
2014-Nov-24 06:29N 29°44' W 095°09'4 3.1
2014-Nov-24 05:15N 29°46' W 095°05'1 0.7
2014-Nov-24 04:24N 29°46' W 095°06'0 0.0
2014-Nov-24 01:21N 29°45' W 095°06'1 0.9
2014-Nov-24 00:24N 29°46' W 095°05'4 5.2
2014-Nov-23 23:33N 29°43' W 095°01'4 4.3
2014-Nov-23 22:33N 29°40' W 094°58'6 5.9
2014-Nov-23 21:34N 29°34' W 094°55'7 6.5
2014-Nov-23 20:32N 29°29' W 094°51'  

Dump ship's entire track history